Location: Aalsum
(53.3404°N, 6.0062°E)
Time: 04:23:29
(UTC+00:00)

Cosmos 1745 Rocket - Pass Details

Date: 28 January 2023
Orbit: 951 x 998 km, 83.0° (Epoch: 24 March)

Event Time Altitude Azimuth Distance (km) Brightness Sun altitude
Rises 18:25:27 0° 351° (N) 3,719 7.1 -19.8°
Reaches altitude 10° 18:28:10 10° 359° (N) 2,760 6.3 -20.3°
Maximum altitude 18:34:08 41° 69° (ENE) 1,384 4.3 -21.1°
Enters shadow 18:34:57 40° 88° (E) 1,420 4.3 -21.3°
